EA8CHC Sevilla ES current weather conditions

sailwx.info

Wind from 140

Air temperature 23.3° C
Dewpoint 15.9° C

Last reported at 2014-Aug-22 22:52 UTC.
Time now 2014-Aug-22 23:42 UTC

Location: N 37°26' W 006°03'.
View on Google Maps.

See reports from other nearby stations

  
Tides and Currents Weather Stations Pressure Air Temp Water Temp Dewpoint Dewpoint Depression Visibility Wind Speed Wind Dir Waves Ship Positions
date/time (UTC)wind fromknots sea level pressurealtimeterstation pressurevisibilityair tempwater tempwave heightnotes
2014-Aug-22 22:52 140 23.3
2014-Aug-22 22:47 140 22.8
2014-Aug-22 22:42 140 22.8
2014-Aug-22 22:37 140 22.8
2014-Aug-22 22:32 140 1 gusting 5 22.8
2014-Aug-22 22:27 140 2 gusting 5 22.8
2014-Aug-22 22:22 123 2 gusting 5 23.3
2014-Aug-22 22:17 132 1 gusting 6 23.3
2014-Aug-22 22:12 132 1 gusting 6 23.9
2014-Aug-22 22:07 132 2 gusting 6 23.9
2014-Aug-22 22:02 140 0 gusting 5 24.4
2014-Aug-22 21:57 115 24.4
2014-Aug-22 21:52 115 24.4
2014-Aug-22 21:47 115 25.0
2014-Aug-22 21:42 115 0 gusting 4 25.0
2014-Aug-22 21:37 115 1 gusting 5 25.6
2014-Aug-22 21:32 232 1 gusting 7 26.1
2014-Aug-22 21:27 232 2 gusting 7 26.1
2014-Aug-22 21:22 223 3 gusting 8 26.1
2014-Aug-22 21:17 249 3 gusting 8 26.1
2014-Aug-22 21:12 212 3 gusting 8 26.1
2014-Aug-22 21:07 211 3 gusting 7 26.1
2014-Aug-22 21:02 288 3 gusting 7 26.1
2014-Aug-22 20:57 254 3 gusting 6 26.1
2014-Aug-22 20:52 230 2 gusting 5 26.1
2014-Aug-22 20:47 231 1 gusting 7 26.1
2014-Aug-22 20:42 266 2 gusting 7 26.1
2014-Aug-22 20:37 250 2 gusting 5 26.1
2014-Aug-22 20:32 251 1 gusting 5 26.1
2014-Aug-22 20:27 246 1 gusting 6 26.1
2014-Aug-22 20:22 246 1 gusting 6 26.7
2014-Aug-22 20:17 234 2 gusting 6 26.7
2014-Aug-22 20:12 232 2 gusting 6 26.7
2014-Aug-22 20:07 217 2 gusting 7 26.7
2014-Aug-22 20:02 218 3 gusting 10 26.7
2014-Aug-22 19:57 233 3 gusting 10 26.7
2014-Aug-22 19:52 252 3 gusting 10 27.2
2014-Aug-22 19:47 198 4 gusting 9 27.2
2014-Aug-22 19:42 250 4 gusting 13 27.2
2014-Aug-22 19:37 242 5 gusting 13 27.2
2014-Aug-22 19:32 244 6 gusting 13 27.2
2014-Aug-22 19:27 212 7 gusting 13 27.8
2014-Aug-22 19:22 215 8 gusting 13 27.8
2014-Aug-22 19:17 249 8 gusting 13 27.8
2014-Aug-22 19:12 244 7 gusting 13 28.3
2014-Aug-22 19:07 219 7 gusting 15 28.3
2014-Aug-22 19:02 211 8 gusting 15 28.3
2014-Aug-22 18:57 230 9 gusting 15 28.9
2014-Aug-22 18:52 223 8 gusting 15 28.9
2014-Aug-22 18:47 237 7 gusting 15 29.4
2014-Aug-22 18:42 215 8 gusting 14 29.4
2014-Aug-22 18:37 232 7 gusting 15 30.0
2014-Aug-22 18:32 199 6 gusting 15 30.6
2014-Aug-22 18:27 227 7 gusting 14 30.6
2014-Aug-22 18:22 242 7 gusting 18 30.6
2014-Aug-22 18:17 247 7 gusting 18 30.6
2014-Aug-22 18:12 209 8 gusting 18 30.6
2014-Aug-22 18:02 223 7 gusting 16 31.1
2014-Aug-22 17:57 221 7 gusting 16 31.1
2014-Aug-22 17:52 254 7 gusting 16 31.1
2014-Aug-22 17:47 230 8 gusting 17 31.1
2014-Aug-22 17:42 252 7 gusting 19 31.7
2014-Aug-22 17:37 246 9 gusting 19 31.7
2014-Aug-22 17:32 263 10 gusting 19 31.7
2014-Aug-22 17:27 214 8 gusting 19 32.2
2014-Aug-22 17:22 225 7 gusting 19 32.8
2014-Aug-22 17:17 251 7 gusting 16 32.8
2014-Aug-22 17:12 272 6 gusting 16 33.3
2014-Aug-22 17:07 279 7 gusting 20 33.3
2014-Aug-22 17:02 224 8 gusting 20 33.3
2014-Aug-22 16:57 254 8 gusting 20 33.3
2014-Aug-22 16:52 292 7 gusting 18 33.3
2014-Aug-22 16:47 250 6 gusting 20 33.3
2014-Aug-22 16:42 261 9 gusting 20 33.3
2014-Aug-22 16:37 226 10 gusting 20 33.3
2014-Aug-22 16:32 273 6 gusting 12 33.9
2014-Aug-22 16:27 228 6 gusting 13 33.9
2014-Aug-22 16:22 204 6 gusting 18 33.3
2014-Aug-22 16:17 257 7 gusting 18 33.3
2014-Aug-22 16:12 233 7 gusting 18 33.3
2014-Aug-22 16:07 245 7 gusting 13 33.3
2014-Aug-22 16:02 234 6 gusting 13 33.3
2014-Aug-22 15:57 213 6 gusting 13 33.3
2014-Aug-22 15:52 300 5 gusting 13 33.3
2014-Aug-22 15:47 212 6 gusting 13 33.3
2014-Aug-22 15:42 258 6 gusting 13 32.8
2014-Aug-22 15:37 192 6 gusting 13 32.8
2014-Aug-22 15:32 191 6 gusting 13 32.8
2014-Aug-22 15:27 235 4 gusting 11 32.8
2014-Aug-22 15:22 271 6 gusting 13 32.8
2014-Aug-22 15:17 190 6 gusting 13 32.2
2014-Aug-22 15:12 205 6 gusting 13 32.2
2014-Aug-22 15:07 233 6 gusting 13 32.2
2014-Aug-22 15:02 184 6 gusting 13 32.2
2014-Aug-22 14:57 203 6 gusting 16 32.2
2014-Aug-22 14:52 200 6 gusting 16 32.2
2014-Aug-22 14:47 219 5 gusting 13 32.2
2014-Aug-22 14:42 207 6 gusting 13 32.2
2014-Aug-22 14:37 229 6 gusting 13 31.7
2014-Aug-22 14:32 275 5 gusting 13 31.7
2014-Aug-22 14:27 219 6 gusting 13 31.1
2014-Aug-22 14:22 169 6 gusting 13 31.7
2014-Aug-22 14:17 237 4 gusting 8 32.2
2014-Aug-22 14:12 200 3 gusting 12 32.2
2014-Aug-22 14:07 277 4 gusting 12 32.2
2014-Aug-22 14:02 247 5 gusting 12 32.2
2014-Aug-22 13:57 196 4 gusting 10 31.7
2014-Aug-22 13:52 196 3 gusting 9 31.7
2014-Aug-22 13:47 134 4 gusting 12 31.7
2014-Aug-22 13:42 254 4 gusting 12 31.1
2014-Aug-22 13:37 196 4 gusting 12 30.6
2014-Aug-22 13:32 196 5 gusting 10 30.6
2014-Aug-22 13:27 148 4 gusting 12 30.6
2014-Aug-22 13:22 211 4 gusting 12 30.6
2014-Aug-22 13:12 232 5 gusting 11 30.6
2014-Aug-22 13:07 191 5 gusting 11 30.6
2014-Aug-22 13:02 175 4 gusting 11 30.6
2014-Aug-22 12:57 165 3 gusting 10 30.6
2014-Aug-22 12:52 211 3 gusting 8 30.0
2014-Aug-22 12:47 168 4 gusting 8 30.0
2014-Aug-22 12:42 257 3 gusting 8 30.0
2014-Aug-22 12:37 246 2 gusting 6 30.0
2014-Aug-22 12:32 243 1 gusting 11 30.0
2014-Aug-22 12:27 229 3 gusting 11 29.4
2014-Aug-22 12:22 254 5 gusting 11 29.4
2014-Aug-22 12:17 228 4 gusting 9 29.4
2014-Aug-22 12:12 222 2 gusting 9 29.4
2014-Aug-22 12:07 206 3 gusting 9 28.9
2014-Aug-22 12:02 180 4 gusting 9 28.9
2014-Aug-22 11:57 192 3 gusting 11 28.9
2014-Aug-22 11:52 216 5 gusting 11 28.9
2014-Aug-22 11:47 209 5 gusting 11 28.3
2014-Aug-22 11:42 227 2 gusting 6 28.3
2014-Aug-22 11:37 311 2 gusting 9 28.3
2014-Aug-22 11:32 238 3 gusting 9 28.3
2014-Aug-22 11:27 161 4 gusting 9 28.3
2014-Aug-22 11:22 182 4 gusting 9 28.3
2014-Aug-22 11:17 197 3 gusting 9 27.8
2014-Aug-22 11:12 240 1 gusting 6 27.8
2014-Aug-22 11:07 238 2 gusting 6 27.8
2014-Aug-22 11:02 218 3 gusting 6 27.8
2014-Aug-22 10:57 248 3 gusting 6 27.8
2014-Aug-22 10:52 202 1 gusting 6 27.2
2014-Aug-22 10:47 207 1 gusting 6 27.2
2014-Aug-22 10:42 201 1 gusting 6 26.7
2014-Aug-22 10:37 240 2 gusting 6 26.7
2014-Aug-22 10:32 132 3 gusting 6 26.7
2014-Aug-22 10:27 128 2 gusting 6 26.7
2014-Aug-22 10:22 158 3 gusting 6 26.7
2014-Aug-22 10:17 115 2 gusting 6 26.7
2014-Aug-22 10:12 082 1 gusting 4 26.7
2014-Aug-22 10:07 127 1 gusting 4 26.7
2014-Aug-22 10:02 140 1 gusting 4 26.7
2014-Aug-22 09:57 207 1 gusting 4 26.7
2014-Aug-22 09:52 161 0 gusting 4 26.7
2014-Aug-22 09:47 158 26.1
2014-Aug-22 09:42 158 25.6
2014-Aug-22 09:37 148 0 gusting 4 25.0
2014-Aug-22 09:32 148 1 gusting 6 25.0
2014-Aug-22 09:27 105 1 gusting 6 24.4
2014-Aug-22 09:22 148 1 gusting 6 24.4
2014-Aug-22 09:17 114 1 gusting 5 24.4
2014-Aug-22 09:12 114 2 gusting 5 23.9
2014-Aug-22 09:07 114 0 gusting 5 23.9
2014-Aug-22 09:02 077 0 gusting 3 23.9
2014-Aug-22 08:57 077 1 gusting 3 23.3
2014-Aug-22 08:52 077 0 gusting 3 23.3
2014-Aug-22 08:47 047 0 gusting 4 23.3
2014-Aug-22 08:42 047 0 gusting 4 22.8
2014-Aug-22 08:37 047 0 gusting 4 22.8
2014-Aug-22 08:32 351 1 gusting 3 22.8
2014-Aug-22 08:27 031 1 gusting 3 22.8
2014-Aug-22 08:22 040 0 gusting 3 22.8
2014-Aug-22 08:17 080 0 gusting 1 22.2
2014-Aug-22 08:12 080 22.2
2014-Aug-22 08:07 080 21.7
2014-Aug-22 08:02 080 0 gusting 2 21.7
2014-Aug-22 07:57 319 0 gusting 3 21.7
2014-Aug-22 07:52 315 0 gusting 3 21.1
2014-Aug-22 07:47 315 0 gusting 3 20.6
2014-Aug-22 07:42 347 0 gusting 3 20.6
2014-Aug-22 07:37 348 0 gusting 2 20.6
2014-Aug-22 07:32 313 0 gusting 2 20.0
2014-Aug-22 07:27 313 0 gusting 2 20.0
2014-Aug-22 07:22 313 0 gusting 2 20.0
2014-Aug-22 07:17 313 0 gusting 3 19.4
2014-Aug-22 07:12 313 1 gusting 3 19.4
2014-Aug-22 07:07 313 1 gusting 3 18.9
2014-Aug-22 07:02 315 0 gusting 3 18.9
2014-Aug-22 06:57 299 0 gusting 3 18.9
2014-Aug-22 06:52 299 0 gusting 3 18.3
2014-Aug-22 06:47 299 1 gusting 3 18.3
2014-Aug-22 06:42 299 1 gusting 2 18.3
2014-Aug-22 06:37 299 1 gusting 2 18.3
2014-Aug-22 06:32 299 1 gusting 3 17.8
2014-Aug-22 06:27 299 1 gusting 3 17.8
2014-Aug-22 06:22 299 0 gusting 3 17.8
2014-Aug-22 06:17 299 0 gusting 3 17.8
2014-Aug-22 06:12 299 1 gusting 3 17.8
2014-Aug-22 06:07 299 1 gusting 3 17.8
2014-Aug-22 06:02 299 2 gusting 3 17.8
2014-Aug-22 05:57 300 2 gusting 3 17.8
2014-Aug-22 05:52 311 0 gusting 0 18.3
2014-Aug-22 05:47 337 18.3
2014-Aug-22 05:42 337 18.3
2014-Aug-22 05:37 337 18.3
2014-Aug-22 05:32 337 18.3
2014-Aug-22 05:27 337 18.3
2014-Aug-22 05:22 337 18.3
2014-Aug-22 05:17 337 18.3
2014-Aug-22 05:12 337 17.8
2014-Aug-22 05:07 337 17.8
2014-Aug-22 05:02 337 17.8
2014-Aug-22 04:57 337 17.8
2014-Aug-22 04:47 337 0 gusting 3 17.8
2014-Aug-22 04:37 319 0 gusting 3 18.3
2014-Aug-22 04:32 355 0 gusting 3 18.3
2014-Aug-22 04:27 355 1 gusting 3 18.3
2014-Aug-22 04:22 355 0 gusting 2 18.3
2014-Aug-22 04:17 355 18.9
2014-Aug-22 04:12 355 18.9
2014-Aug-22 04:07 351 18.9
2014-Aug-22 04:02 351 0 gusting 3 18.9
2014-Aug-22 03:57 355 0 gusting 3 18.9
2014-Aug-22 03:52 343 1 gusting 3 18.9
2014-Aug-22 03:47 342 1 gusting 3 19.4
2014-Aug-22 03:42 340 0 gusting 3 19.4
2014-Aug-22 03:37 321 0 gusting 2 19.4
2014-Aug-22 03:32 321 0 gusting 3 19.4
2014-Aug-22 03:27 200 0 gusting 3 20.0
2014-Aug-22 03:22 200 0 gusting 3 20.0
2014-Aug-22 03:17 182 0 gusting 3 20.0
2014-Aug-22 03:12 182 19.4
2014-Aug-22 03:07 182 19.4
2014-Aug-22 03:02 182 19.4
2014-Aug-22 02:57 182 19.4
2014-Aug-22 02:52 182 0 gusting 3 19.4
2014-Aug-22 02:47 182 1 gusting 5 19.4
2014-Aug-22 02:42 182 2 gusting 6 19.4
2014-Aug-22 02:37 182 3 gusting 6 19.4
2014-Aug-22 02:32 180 2 gusting 6 20.0
2014-Aug-22 02:27 164 2 gusting 5 20.0
2014-Aug-22 02:22 153 1 gusting 6 20.0
2014-Aug-22 02:17 144 1 gusting 6 20.0
2014-Aug-22 02:12 149 3 gusting 6 20.0
2014-Aug-22 02:07 146 3 gusting 6 20.0
2014-Aug-22 02:02 159 2 gusting 6 20.0
2014-Aug-22 01:57 133 3 gusting 6 20.0
2014-Aug-22 01:52 151 3 gusting 6 20.0
2014-Aug-22 01:47 150 3 gusting 6 20.0
2014-Aug-22 01:42 144 2 gusting 5 20.6
2014-Aug-22 01:37 173 2 gusting 6 20.6
2014-Aug-22 01:32 166 2 gusting 6 20.6
2014-Aug-22 01:27 156 1 gusting 5 20.6
2014-Aug-22 01:22 180 1 gusting 5 20.6
2014-Aug-22 01:17 179 1 gusting 4 20.6
2014-Aug-22 01:12 180 0 gusting 3 20.6
2014-Aug-22 01:07 180 0 gusting 4 20.6
2014-Aug-22 01:02 180 0 gusting 4 20.6
2014-Aug-22 00:57 179 1 gusting 4 20.6
2014-Aug-22 00:52 179 1 gusting 5 20.6
2014-Aug-22 00:47 180 2 gusting 6 20.6
2014-Aug-22 00:42 183 3 gusting 6 20.6
2014-Aug-22 00:37 186 3 gusting 6 21.1
2014-Aug-22 00:32 158 2 gusting 6 21.1
2014-Aug-22 00:27 149 3 gusting 6 21.1
2014-Aug-22 00:22 151 3 gusting 6 21.1
2014-Aug-22 00:17 153 3 gusting 7 21.1
2014-Aug-22 00:12 152 3 gusting 7 21.1
2014-Aug-22 00:07 205 4 gusting 8 21.1
2014-Aug-22 00:02 209 4 gusting 8 21.1
2014-Aug-21 23:57 147 4 gusting 8 21.1
2014-Aug-21 23:52 192 5 gusting 8 21.1
2014-Aug-21 23:47 173 4 gusting 8 21.7
2014-Aug-21 23:42 189 3 gusting 6 21.7
2014-Aug-21 23:37 189 3 gusting 7 21.7
2014-Aug-21 23:32 171 4 gusting 7 21.7
2014-Aug-21 23:27 142 4 gusting 7 21.7
2014-Aug-21 23:22 187 4 gusting 6 21.7
2014-Aug-21 23:17 174 3 gusting 6 21.7
2014-Aug-21 23:12 184 3 gusting 6 22.2
2014-Aug-21 23:07 175 3 gusting 6 22.2
2014-Aug-21 23:02 153 3 gusting 6 22.2
2014-Aug-21 22:57 178 3 gusting 6 22.2
2014-Aug-21 22:52 181 2 gusting 6 22.8
2014-Aug-21 22:47 138 2 gusting 6 22.8
2014-Aug-21 22:42 139 3 gusting 8 22.8
2014-Aug-21 22:37 168 4 gusting 8 22.8
2014-Aug-21 22:32 161 5 gusting 8 22.8
2014-Aug-21 22:27 147 4 gusting 6 23.3
2014-Aug-21 22:22 146 4 gusting 6 23.3
2014-Aug-21 22:17 175 3 gusting 6 23.3
2014-Aug-21 22:12 201 2 gusting 6 23.3
2014-Aug-21 22:07 181 2 gusting 6 23.3
2014-Aug-21 22:02 198 3 gusting 6 23.9
2014-Aug-21 21:57 162 3 gusting 6 23.9
2014-Aug-21 21:52 171 2 gusting 7 23.9
2014-Aug-21 21:42 177 3 gusting 6 24.4
2014-Aug-21 21:37 184 3 gusting 6 24.4
2014-Aug-21 21:32 203 2 gusting 6 24.4
2014-Aug-21 21:27 192 1 gusting 5 24.4
2014-Aug-21 21:22 225 1 gusting 4 25.0
2014-Aug-21 21:17 164 0 gusting 5 25.0
2014-Aug-21 21:12 160 0 gusting 5 25.0
2014-Aug-21 21:07 160 1 gusting 5 25.0
2014-Aug-21 21:02 220 2 gusting 5 25.0
2014-Aug-21 20:57 217 2 gusting 7 25.0
2014-Aug-21 20:52 211 3 gusting 7 25.0
2014-Aug-21 20:47 218 3 gusting 7 25.0
2014-Aug-21 20:42 231 3 gusting 6 25.0
2014-Aug-21 20:37 232 3 gusting 6 25.6
2014-Aug-21 20:32 235 3 gusting 6 25.6
2014-Aug-21 20:27 227 3 gusting 6 25.6
2014-Aug-21 20:22 282 2 gusting 6 25.6
2014-Aug-21 20:17 273 1 gusting 6 25.6
2014-Aug-21 20:12 228 2 gusting 6 25.6
2014-Aug-21 20:07 278 2 gusting 8 25.6
2014-Aug-21 20:02 284 2 gusting 8 26.1
2014-Aug-21 19:57 262 3 gusting 9 26.1
2014-Aug-21 19:52 261 3 gusting 14 26.1
2014-Aug-21 19:47 230 5 gusting 14 26.7
2014-Aug-21 19:42 208 6 gusting 14 26.7
2014-Aug-21 19:37 211 5 gusting 12 26.7
2014-Aug-21 19:32 219 5 gusting 12 26.7
2014-Aug-21 19:27 234 5 gusting 12 27.2
2014-Aug-21 19:22 252 6 gusting 12 27.2
2014-Aug-21 19:17 200 6 gusting 14 27.2
2014-Aug-21 19:12 219 7 gusting 15 27.8
2014-Aug-21 19:07 223 8 gusting 15 27.8
2014-Aug-21 19:02 224 8 gusting 15 27.8
2014-Aug-21 18:57 225 7 gusting 13 28.3
2014-Aug-21 18:52 242 6 gusting 18 28.3
2014-Aug-21 18:47 210 8 gusting 18 28.3
2014-Aug-21 18:42 238 9 gusting 18 28.3
2014-Aug-21 18:37 224 10 gusting 17 28.9
2014-Aug-21 18:32 221 10 gusting 17 28.9
2014-Aug-21 18:27 227 9 gusting 16 29.4
2014-Aug-21 18:22 223 8 gusting 17 29.4
2014-Aug-21 18:17 247 9 gusting 17 29.4
2014-Aug-21 18:12 215 10 gusting 17 30.0
2014-Aug-21 18:07 253 10 gusting 15 30.0
2014-Aug-21 18:02 273 9 gusting 14 30.6
2014-Aug-21 17:57 210 8 gusting 17 30.6
2014-Aug-21 17:52 217 9 gusting 17 30.6
2014-Aug-21 17:47 212 9 gusting 17 30.6
2014-Aug-21 17:42 190 9 gusting 18 31.1
2014-Aug-21 17:37 248 10 gusting 18 31.1
2014-Aug-21 17:32 229 10 gusting 19 31.1
2014-Aug-21 17:27 219 10 gusting 19 31.7
2014-Aug-21 17:22 212 11 gusting 19 31.7
2014-Aug-21 17:17 219 10 gusting 19 31.7
2014-Aug-21 17:12 209 9 gusting 17 32.2
2014-Aug-21 17:07 231 8 gusting 16 32.2
2014-Aug-21 17:02 234 8 gusting 17 32.8
2014-Aug-21 16:57 228 9 gusting 17 32.8
2014-Aug-21 16:52 176 8 gusting 18 32.8
2014-Aug-21 16:47 267 7 gusting 18 32.8
2014-Aug-21 16:42 249 9 gusting 18 32.8
2014-Aug-21 16:37 205 9 gusting 18 32.8
2014-Aug-21 16:32 224 10 gusting 18 32.8
2014-Aug-21 16:27 231 11 gusting 19 32.8
2014-Aug-21 16:22 245 11 gusting 19 32.8
2014-Aug-21 16:17 218 10 gusting 20 32.8
2014-Aug-21 16:12 237 10 gusting 20 32.8
2014-Aug-21 16:07 213 11 gusting 20 33.3
2014-Aug-21 16:02 263 10 gusting 17 33.3
2014-Aug-21 15:57 217 9 gusting 17 33.3
2014-Aug-21 15:52 205 8 gusting 17 33.3
2014-Aug-21 15:47 279 8 gusting 15 33.3
2014-Aug-21 15:42 202 7 gusting 15 33.9
2014-Aug-21 15:37 255 7 gusting 17 33.9
2014-Aug-21 15:32 244 7 gusting 19 33.3
2014-Aug-21 15:27 136 9 gusting 19 32.8
2014-Aug-21 15:22 141 10 gusting 19 32.8
2014-Aug-21 15:17 164 10 gusting 20 32.8
2014-Aug-21 15:12 151 10 gusting 20 32.8
2014-Aug-21 15:07 146 11 gusting 20 32.8
2014-Aug-21 15:02 157 10 gusting 19 32.8
2014-Aug-21 14:57 148 9 gusting 19 32.8
2014-Aug-21 14:52 142 8 gusting 19 32.8
2014-Aug-21 14:47 183 7 gusting 19 32.8
2014-Aug-21 14:42 238 8 gusting 19 32.8
2014-Aug-21 14:37 191 8 gusting 19 32.8
2014-Aug-21 14:32 195 8 gusting 17 32.8
2014-Aug-21 14:27 205 7 gusting 17 32.8
2014-Aug-21 14:22 168 6 gusting 12 32.8
2014-Aug-21 14:17 175 4 gusting 12 32.8
2014-Aug-21 14:12 202 5 gusting 13 32.8
2014-Aug-21 14:07 244 6 gusting 13 32.8
2014-Aug-21 14:02 190 7 gusting 13 32.8
2014-Aug-21 13:57 208 6 gusting 13 32.8
2014-Aug-21 13:52 225 6 gusting 13 32.8
2014-Aug-21 13:47 227 6 gusting 13 32.8
2014-Aug-21 13:42 211 4 gusting 13 32.8
2014-Aug-21 13:37 227 2 gusting 11 32.8
2014-Aug-21 13:32 229 4 gusting 15 32.8
2014-Aug-21 13:27 223 7 gusting 15 32.8
2014-Aug-21 13:22 224 7 gusting 13 32.2
2014-Aug-21 13:17 208 6 gusting 11 32.2
2014-Aug-21 13:12 224 6 gusting 11 32.2
2014-Aug-21 13:07 188 6 gusting 11 31.7
2014-Aug-21 13:02 164 5 gusting 11 31.7
2014-Aug-21 12:57 171 5 gusting 12 31.1
2014-Aug-21 12:52 163 6 gusting 12 31.1
2014-Aug-21 12:47 205 5 gusting 10 31.1
2014-Aug-21 12:42 179 5 gusting 10 31.1
2014-Aug-21 12:37 203 4 gusting 10 31.1
2014-Aug-21 12:32 180 5 gusting 10 31.1
2014-Aug-21 12:27 178 5 gusting 10 31.1
2014-Aug-21 12:22 244 5 gusting 11 31.1
2014-Aug-21 12:17 216 6 gusting 11 30.6
2014-Aug-21 12:12 192 4 gusting 11 30.6
2014-Aug-21 12:07 194 3 gusting 12 31.1
2014-Aug-21 12:02 207 4 gusting 12 30.6
2014-Aug-21 11:57 192 5 gusting 12 30.6
2014-Aug-21 11:52 157 4 gusting 10 30.6
2014-Aug-21 11:47 158 4 gusting 11 30.6
2014-Aug-21 11:42 158 5 gusting 11 30.6
2014-Aug-21 11:37 130 5 gusting 11 30.0
2014-Aug-21 11:32 136 6 gusting 11 29.4
2014-Aug-21 11:27 128 6 gusting 11 30.0
2014-Aug-21 11:22 181 4 gusting 10 30.0
2014-Aug-21 11:17 128 5 gusting 10 29.4
2014-Aug-21 11:12 195 4 gusting 10 29.4
2014-Aug-21 11:07 165 4 gusting 10 29.4
2014-Aug-21 11:02 148 5 gusting 9 28.9
2014-Aug-21 10:57 126 4 gusting 9 28.9
2014-Aug-21 10:52 119 4 gusting 9 28.3
2014-Aug-21 10:47 159 4 gusting 9 28.3
2014-Aug-21 10:42 116 4 gusting 9 28.3
2014-Aug-21 10:37 162 3 gusting 7 28.3
2014-Aug-21 10:32 121 2 gusting 7 28.3
2014-Aug-21 10:27 130 1 gusting 5 27.8
2014-Aug-21 10:22 149 1 gusting 4 27.8
2014-Aug-21 10:17 078 0 gusting 5 27.8
2014-Aug-21 10:12 159 1 gusting 6 27.2
2014-Aug-21 10:07 135 1 gusting 6 27.2
2014-Aug-21 10:02 125 1 gusting 4 27.2
2014-Aug-21 09:57 124 0 gusting 4 26.7
2014-Aug-21 09:52 098 0 gusting 4 26.7
2014-Aug-21 09:47 098 0 gusting 4 26.1
2014-Aug-21 09:42 098 1 gusting 4 26.1
2014-Aug-21 09:37 098 0 gusting 5 25.6
2014-Aug-21 09:32 098 0 gusting 5 25.0
2014-Aug-21 09:27 098 1 gusting 5 25.0
2014-Aug-21 09:22 098 1 gusting 4 25.0
2014-Aug-21 09:17 098 0 gusting 4 24.4
2014-Aug-21 09:12 098 1 gusting 4 24.4
2014-Aug-21 09:07 098 1 gusting 4 23.9
2014-Aug-21 09:02 098 0 gusting 4 23.9
2014-Aug-21 08:57 099 0 gusting 5 23.9
2014-Aug-21 08:52 098 1 gusting 5 23.3
2014-Aug-21 08:47 099 1 gusting 5 23.3
2014-Aug-21 08:42 101 0 gusting 4 23.3
2014-Aug-21 08:37 128 1 gusting 4 23.3
2014-Aug-21 08:32 128 0 gusting 4 23.3
2014-Aug-21 08:27 344 0 gusting 2 23.3
2014-Aug-21 08:22 331 22.8
2014-Aug-21 08:17 331 22.8
2014-Aug-21 08:12 317 0 gusting 2 22.2
2014-Aug-21 08:07 316 0 gusting 2 21.7
2014-Aug-21 08:02 316 0 gusting 2 21.7
2014-Aug-21 07:57 316 21.7
2014-Aug-21 07:52 316 21.1
2014-Aug-21 07:47 316 20.6
2014-Aug-21 07:42 316 0 gusting 3 20.6
2014-Aug-21 07:37 316 0 gusting 3 20.0
2014-Aug-21 07:32 316 0 gusting 3 20.0
2014-Aug-21 07:27 315 0 gusting 3 20.0
2014-Aug-21 07:22 308 0 gusting 3 19.4
2014-Aug-21 07:17 307 0 gusting 3 19.4
2014-Aug-21 07:12 307 0 gusting 3 19.4
2014-Aug-21 07:07 307 0 gusting 3 18.9
2014-Aug-21 07:02 307 0 gusting 3 18.9
2014-Aug-21 06:57 307 1 gusting 3 18.9
2014-Aug-21 06:52 307 1 gusting 2 18.3
2014-Aug-21 06:47 307 0 gusting 2 18.3
2014-Aug-21 06:42 307 0 gusting 2 18.3
2014-Aug-21 06:37 307 0 gusting 2 18.3
2014-Aug-21 06:32 307 18.3
2014-Aug-21 06:27 307 18.3
2014-Aug-21 06:22 307 18.3
2014-Aug-21 06:17 307 18.3
2014-Aug-21 06:12 307 18.3
2014-Aug-21 06:07 307 18.3
2014-Aug-21 06:02 307 18.3
2014-Aug-21 05:57 307 18.3
2014-Aug-21 05:52 307 18.3
2014-Aug-21 05:47 307 18.3
2014-Aug-21 05:42 307 18.3
2014-Aug-21 05:37 307 18.3
2014-Aug-21 05:32 307 0 gusting 3 18.3
2014-Aug-21 05:27 307 18.3
2014-Aug-21 05:22 307 18.3
2014-Aug-21 05:17 307 0 gusting 3 18.3
2014-Aug-21 05:12 307 1 gusting 3 18.3
2014-Aug-21 05:07 307 1 gusting 3 18.3
2014-Aug-21 05:02 307 0 18.3
2014-Aug-21 04:57 297 18.3
2014-Aug-21 04:52 297 18.3
2014-Aug-21 04:47 297 18.3
2014-Aug-21 04:42 297 18.3
2014-Aug-21 04:37 297 18.3
2014-Aug-21 04:32 297 18.3
2014-Aug-21 04:27 297 18.3
2014-Aug-21 04:22 297 0 gusting 2 18.3
2014-Aug-21 04:17 297 1 gusting 3 18.3
2014-Aug-21 04:12 297 1 gusting 3 18.3
2014-Aug-21 04:07 297 1 gusting 3 18.3
2014-Aug-21 04:02 297 0 gusting 2 18.3
2014-Aug-21 03:57 297 0 gusting 3 18.3
2014-Aug-21 03:52 297 1 gusting 3 18.3
2014-Aug-21 03:47 297 2 gusting 4 18.3
2014-Aug-21 03:42 297 2 gusting 4 18.3
2014-Aug-21 03:37 322 2 gusting 4 18.3
2014-Aug-21 03:32 313 2 gusting 3 18.3
2014-Aug-21 03:27 321 1 gusting 3 18.9
2014-Aug-21 03:22 329 1 gusting 3 18.9
2014-Aug-21 03:17 005 0 gusting 2 18.9
2014-Aug-21 03:12 005 19.4
2014-Aug-21 03:07 013 19.4
2014-Aug-21 03:02 013 19.4
2014-Aug-21 02:57 013 19.4
2014-Aug-21 02:52 013 19.4
2014-Aug-21 02:47 013 19.4
2014-Aug-21 02:42 013 19.4
2014-Aug-21 02:37 013 0 gusting 4 19.4
2014-Aug-21 02:32 013 2 gusting 4 19.4
2014-Aug-21 02:27 19.4
2014-Aug-21 02:22 005 1 gusting 3 20.0
2014-Aug-21 02:17 005 1 gusting 3 20.0
2014-Aug-21 02:12 005 1 gusting 3 20.0
2014-Aug-21 02:07 266 0 gusting 4 20.0
2014-Aug-21 02:02 266 2 gusting 5 20.0
2014-Aug-21 01:57 266 3 gusting 5 20.0
2014-Aug-21 01:52 266 2 gusting 5 20.6
2014-Aug-21 01:47 212 1 gusting 5 21.1
2014-Aug-21 01:42 212 2 gusting 5 21.1
2014-Aug-21 01:37 212 1 gusting 5 21.1
2014-Aug-21 01:32 214 1 gusting 5 21.1
2014-Aug-21 01:27 214 1 gusting 5 21.1
2014-Aug-21 01:22 191 1 gusting 6 21.1
2014-Aug-21 01:17 191 2 gusting 6 21.1
2014-Aug-21 01:12 182 3 gusting 6 21.1
2014-Aug-21 01:07 211 2 gusting 5 21.1
2014-Aug-21 01:02 193 2 gusting 8 21.1
2014-Aug-21 00:57 161 3 gusting 8 21.1
2014-Aug-21 00:52 198 3 gusting 7 21.1
2014-Aug-21 00:47 192 4 gusting 7 21.1
2014-Aug-21 00:42 157 4 gusting 7 21.7
2014-Aug-21 00:37 156 4 gusting 6 21.7
2014-Aug-21 00:32 174 3 gusting 6 21.7
2014-Aug-21 00:27 161 2 gusting 6 21.7
2014-Aug-21 00:22 169 1 gusting 6 21.7
2014-Aug-21 00:17 183 2 gusting 6 21.7
2014-Aug-21 00:12 180 4 gusting 6 21.7
2014-Aug-21 00:07 138 3 gusting 6 22.2
2014-Aug-21 00:02 151 3 gusting 6 22.2
2014-Aug-20 23:57 146 3 gusting 6 22.2
2014-Aug-20 23:52 163 3 gusting 6 22.2
2014-Aug-20 23:47 167 4 gusting 6 22.2
2014-Aug-20 23:42 178 4 gusting 6 22.2
2014-Aug-20 23:37 161 4 gusting 6 22.2
2014-Aug-20 23:32 167 3 gusting 6 22.2
2014-Aug-20 23:27 147 2 gusting 6 22.2
2014-Aug-20 23:22 149 2 gusting 6 22.2
2014-Aug-20 23:17 142 2 gusting 6 22.2
2014-Aug-20 23:12 161 2 gusting 7 22.2
2014-Aug-20 23:07 170 4 gusting 7 22.2
2014-Aug-20 23:02 155 3 gusting 7 22.2